owner,sensor,date,latitude,longitude,vertical_datum,wind_speed,wind_to_direction,wind_speed_of_gust,qcFlag 
NDBC,ioos:station:NOAA.NDBC:VENF1:1,2010-10-01T00:00:00Z,27.0720,-82.4530,11.6,5.1,300.0,,'1111122,1111122,1111122' 
NDBC,ioos:station:NOAA.NDBC:VENF1:1,2010-10-01T01:00:00Z,27.0720,-82.4530,11.6,8.2,20.0,,'1111122,1111122,1111122' 
NDBC,ioos:station:NOAA.NDBC:VENF1:1,2010-10-01T02:00:00Z,27.0720,-82.4530,11.6,6.2,10.0,,'1111122,1111122,1111122' 
NDBC,ioos:station:NOAA.NDBC:VENF1:1,2010-10-01T03:00:00Z,27.0720,-82.4530,11.6,6.2,360.0,,'1111122,1111122,1111122' 
NDBC,ioos:station:NOAA.NDBC:VENF1:1,2010-10-01T04:00:00Z,27.0720,-82.4530,11.6,6.7,360.0,,'1111122,1111122,1111122' 
NDBC,ioos:station:NOAA.NDBC:VENF1:1,2010-10-01T05:00:00Z,27.0720,-82.4530,11.6,5.7,350.0,,'1111122,1111122,1111122' 
NDBC,ioos:station:NOAA.NDBC:VENF1:1,2010-10-01T06:00:00Z,27.0720,-82.4530,11.6,5.1,360.0,,'1111122,1111122,1111122' 
NDBC,ioos:station:NOAA.NDBC:VENF1:1,2010-10-01T07:00:00Z,27.0720,-82.4530,11.6,4.1,30.0,,'1111122,1111122,1111122' 
NDBC,ioos:station:NOAA.NDBC:VENF1:1,2010-10-01T08:00:00Z,27.0720,-82.4530,11.6,4.6,10.0,,'1111122,1111122,1111122' 
NDBC,ioos:station:NOAA.NDBC:VENF1:1,2010-10-01T09:00:00Z,27.0720,-82.4530,11.6,3.6,10.0,,'1111122,1111122,1111122' 
NDBC,ioos:station:NOAA.NDBC:VENF1:1,2010-10-01T10:00:00Z,27.0720,-82.4530,11.6,3.1,10.0,,'1111122,1111122,1111122' 
NDBC,ioos:station:NOAA.NDBC:VENF1:1,2010-10-01T11:00:00Z,27.0720,-82.4530,11.6,5.7,360.0,,'1111122,1111122,1111122' 
NDBC,ioos:station:NOAA.NDBC:VENF1:1,2010-10-01T12:00:00Z,27.0720,-82.4530,11.6,6.7,340.0,,'1111122,1111122,1111122' 
NDBC,ioos:station:NOAA.NDBC:VENF1:1,2010-10-01T13:00:00Z,27.0720,-82.4530,11.6,6.7,10.0,,'1111122,1111122,1111122' 
NDBC,ioos:station:NOAA.NDBC:VENF1:1,2010-10-01T14:00:00Z,27.0720,-82.4530,11.6,6.7,350.0,,'1111122,1111122,1111122' 
NDBC,ioos:station:NOAA.NDBC:VENF1:1,2010-10-01T15:00:00Z,27.0720,-82.4530,11.6,6.7,20.0,,'1111122,1111122,1111122' 
NDBC,ioos:station:NOAA.NDBC:VENF1:1,2010-10-01T16:00:00Z,27.0720,-82.4530,11.6,5.7,360.0,,'1111122,1111122,1111122' 
NDBC,ioos:station:NOAA.NDBC:VENF1:1,2010-10-01T17:00:00Z,27.0720,-82.4530,11.6,4.1,330.0,,'1111122,1111122,1111122' 
NDBC,ioos:station:NOAA.NDBC:VENF1:1,2010-10-01T18:00:00Z,27.0720,-82.4530,11.6,4.1,340.0,,'1111122,1111122,1111122' 
NDBC,ioos:station:NOAA.NDBC:VENF1:1,2010-10-01T19:00:00Z,27.0720,-82.4530,11.6,3.6,320.0,,'1111122,1111122,1111122' 
NDBC,ioos:station:NOAA.NDBC:VENF1:1,2010-10-01T20:00:00Z,27.0720,-82.4530,11.6,3.6,300.0,,'1111122,1111122,1111122' 
NDBC,ioos:station:NOAA.NDBC:VENF1:1,2010-10-01T21:00:00Z,27.0720,-82.4530,11.6,5.1,320.0,,'1111122,1111122,1111122' 
NDBC,ioos:station:NOAA.NDBC:VENF1:1,2010-10-01T22:00:00Z,27.0720,-82.4530,11.6,4.1,330.0,,'1111122,1111122,1111122' 
NDBC,ioos:station:NOAA.NDBC:VENF1:1,2010-10-01T23:00:00Z,27.0720,-82.4530,11.6,3.1,310.0,,'1111122,1111122,1111122' 
NDBC,ioos:station:NOAA.NDBC:VENF1:1,2010-10-02T00:00:00Z,27.0720,-82.4530,11.6,3.6,340.0,,'1111122,1111122,1111122' 
NDBC,ioos:station:NOAA.NDBC:VENF1:1,2010-10-02T01:00:00Z,27.0720,-82.4530,11.6,1.5,330.0,,'1111122,1111122,1111122' 
NDBC,ioos:station:NOAA.NDBC:VENF1:1,2010-10-02T02:00:00Z,27.0720,-82.4530,11.6,1.0,260.0,,'1111122,1111122,1111122' 
NDBC,ioos:station:NOAA.NDBC:VENF1:1,2010-10-02T04:00:00Z,27.0720,-82.4530,11.6,1.0,180.0,,'1111122,1111122,1111122' 
NDBC,ioos:station:NOAA.NDBC:VENF1:1,2010-10-02T05:00:00Z,27.0720,-82.4530,11.6,0.5,220.0,,'1111122,1111122,1111122' 
NDBC,ioos:station:NOAA.NDBC:VENF1:1,2010-10-02T06:00:00Z,27.0720,-82.4530,11.6,0.5,250.0,,'1111122,1111122,1111122' 
NDBC,ioos:station:NOAA.NDBC:VENF1:1,2010-10-02T07:00:00Z,27.0720,-82.4530,11.6,3.1,50.0,,'1111122,1111122,1111122' 
NDBC,ioos:station:NOAA.NDBC:VENF1:1,2010-10-02T08:00:00Z,27.0720,-82.4530,11.6,4.1,50.0,,'1111122,1111122,1111122' 
NDBC,ioos:station:NOAA.NDBC:VENF1:1,2010-10-02T09:00:00Z,27.0720,-82.4530,11.6,4.1,80.0,,'1111122,1111122,1111122' 
NDBC,ioos:station:NOAA.NDBC:VENF1:1,2010-10-02T10:00:00Z,27.0720,-82.4530,11.6,3.6,80.0,,'1111122,1111122,1111122' 
NDBC,ioos:station:NOAA.NDBC:VENF1:1,2010-10-02T11:00:00Z,27.0720,-82.4530,11.6,4.1,90.0,,'1111122,1111122,1111122' 
NDBC,ioos:station:NOAA.NDBC:VENF1:1,2010-10-02T12:00:00Z,27.0720,-82.4530,11.6,5.1,270.0,,'1111122,1111122,1111122' 
NDBC,ioos:station:NOAA.NDBC:VENF1:1,2010-10-02T13:00:00Z,27.0720,-82.4530,11.6,4.1,100.0,,'1111122,1111122,1111122' 
NDBC,ioos:station:NOAA.NDBC:VENF1:1,2010-10-02T14:00:00Z,27.0720,-82.4530,11.6,1.0,80.0,,'1111122,1111122,1111122' 
NDBC,ioos:station:NOAA.NDBC:VENF1:1,2010-10-02T16:00:00Z,27.0720,-82.4530,11.6,2.6,320.0,,'1111122,1111122,1111122' 
NDBC,ioos:station:NOAA.NDBC:VENF1:1,2010-10-02T17:00:00Z,27.0720,-82.4530,11.6,3.1,320.0,,'1111122,1111122,1111122' 
NDBC,ioos:station:NOAA.NDBC:VENF1:1,2010-10-02T18:00:00Z,27.0720,-82.4530,11.6,3.6,330.0,,'1111122,1111122,1111122' 
NDBC,ioos:station:NOAA.NDBC:VENF1:1,2010-10-02T19:00:00Z,27.0720,-82.4530,11.6,4.1,330.0,,'1111122,1111122,1111122' 
NDBC,ioos:station:NOAA.NDBC:VENF1:1,2010-10-02T20:00:00Z,27.0720,-82.4530,11.6,4.6,330.0,,'1111122,1111122,1111122' 
NDBC,ioos:station:NOAA.NDBC:VENF1:1,2010-10-02T21:00:00Z,27.0720,-82.4530,11.6,4.1,330.0,,'1111122,1111122,1111122' 
NDBC,ioos:station:NOAA.NDBC:VENF1:1,2010-10-02T22:00:00Z,27.0720,-82.4530,11.6,3.6,350.0,,'1111122,1111122,1111122' 
NDBC,ioos:station:NOAA.NDBC:VENF1:1,2010-10-02T23:00:00Z,27.0720,-82.4530,11.6,4.1,330.0,,'1111122,1111122,1111122' 
NDBC,ioos:station:NOAA.NDBC:VENF1:1,2010-10-03T00:00:00Z,27.0720,-82.4530,11.6,3.6,340.0,,'1111122,1111122,1111122' 
NDBC,ioos:station:NOAA.NDBC:VENF1:1,2010-10-03T01:00:00Z,27.0720,-82.4530,11.6,3.1,350.0,,'1111122,1111122,1111122' 
NDBC,ioos:station:NOAA.NDBC:VENF1:1,2010-10-03T02:00:00Z,27.0720,-82.4530,11.6,2.6,360.0,,'1111122,1111122,1111122' 
NDBC,ioos:station:NOAA.NDBC:VENF1:1,2010-10-03T03:00:00Z,27.0720,-82.4530,11.6,3.6,350.0,,'1111122,1111122,1111122' 
NDBC,ioos:station:NOAA.NDBC:VENF1:1,2010-10-03T04:00:00Z,27.0720,-82.4530,11.6,2.1,360.0,,'1111122,1111122,1111122' 
NDBC,ioos:station:NOAA.NDBC:VENF1:1,2010-10-03T06:00:00Z,27.0720,-82.4530,11.6,2.1,350.0,,'1111122,1111122,1111122' 
NDBC,ioos:station:NOAA.NDBC:VENF1:1,2010-10-03T07:00:00Z,27.0720,-82.4530,11.6,3.1,360.0,,'1111122,1111122,1111122' 
NDBC,ioos:station:NOAA.NDBC:VENF1:1,2010-10-03T08:00:00Z,27.0720,-82.4530,11.6,2.6,330.0,,'1111122,1111122,1111122' 
NDBC,ioos:station:NOAA.NDBC:VENF1:1,2010-10-03T09:00:00Z,27.0720,-82.4530,11.6,4.1,330.0,,'1111122,1111122,1111122' 
NDBC,ioos:station:NOAA.NDBC:VENF1:1,2010-10-03T10:00:00Z,27.0720,-82.4530,11.6,3.1,360.0,,'1111122,1111122,1111122' 
NDBC,ioos:station:NOAA.NDBC:VENF1:1,2010-10-03T11:00:00Z,27.0720,-82.4530,11.6,3.6,10.0,,'1111122,1111122,1111122' 
NDBC,ioos:station:NOAA.NDBC:VENF1:1,2010-10-03T12:00:00Z,27.0720,-82.4530,11.6,3.6,10.0,,'1111122,1111122,1111122' 
NDBC,ioos:station:NOAA.NDBC:VENF1:1,2010-10-03T13:00:00Z,27.0720,-82.4530,11.6,3.6,360.0,,'1111122,1111122,1111122' 
NDBC,ioos:station:NOAA.NDBC:VENF1:1,2010-10-03T16:00:00Z,27.0720,-82.4530,11.6,5.1,10.0,,'1111122,1111122,1111122' 
NDBC,ioos:station:NOAA.NDBC:VENF1:1,2010-10-03T17:00:00Z,27.0720,-82.4530,11.6,3.1,10.0,,'1111122,1111122,1111122' 
NDBC,ioos:station:NOAA.NDBC:VENF1:1,2010-10-03T18:00:00Z,27.0720,-82.4530,11.6,4.6,10.0,,'1111122,1111122,1111122' 
NDBC,ioos:station:NOAA.NDBC:VENF1:1,2010-10-03T19:00:00Z,27.0720,-82.4530,11.6,6.7,10.0,,'1111122,1111122,1111122' 
NDBC,ioos:station:NOAA.NDBC:VENF1:1,2010-10-03T20:00:00Z,27.0720,-82.4530,11.6,6.2,10.0,,'1111122,1111122,1111122' 
NDBC,ioos:station:NOAA.NDBC:VENF1:1,2010-10-03T21:00:00Z,27.0720,-82.4530,11.6,6.7,20.0,,'1111122,1111122,1111122' 
NDBC,ioos:station:NOAA.NDBC:VENF1:1,2010-10-03T22:00:00Z,27.0720,-82.4530,11.6,7.2,30.0,,'1111122,1111122,1111122' 
NDBC,ioos:station:NOAA.NDBC:VENF1:1,2010-10-03T23:00:00Z,27.0720,-82.4530,11.6,7.7,20.0,,'1111122,1111122,1111122' 
NDBC,ioos:station:NOAA.NDBC:VENF1:1,2010-10-04T00:00:00Z,27.0720,-82.4530,11.6,8.2,10.0,,'1111122,1111122,1111122' 
NDBC,ioos:station:NOAA.NDBC:VENF1:1,2010-10-04T01:00:00Z,27.0720,-82.4530,11.6,8.7,10.0,,'1111122,1111122,1111122' 
NDBC,ioos:station:NOAA.NDBC:VENF1:1,2010-10-04T02:00:00Z,27.0720,-82.4530,11.6,9.8,20.0,,'1111122,1111122,1111122' 
NDBC,ioos:station:NOAA.NDBC:VENF1:1,2010-10-04T03:00:00Z,27.0720,-82.4530,11.6,10.3,20.0,,'1111122,1111122,1111122' 
NDBC,ioos:station:NOAA.NDBC:VENF1:1,2010-10-04T04:00:00Z,27.0720,-82.4530,11.6,10.8,20.0,,'1111122,1111122,1111122' 
NDBC,ioos:station:NOAA.NDBC:VENF1:1,2010-10-04T05:00:00Z,27.0720,-82.4530,11.6,11.3,10.0,,'1111122,1111122,1111122' 
NDBC,ioos:station:NOAA.NDBC:VENF1:1,2010-10-04T06:00:00Z,27.0720,-82.4530,11.6,10.8,10.0,,'1111122,1111122,1111122' 
NDBC,ioos:station:NOAA.NDBC:VENF1:1,2010-10-04T07:00:00Z,27.0720,-82.4530,11.6,9.8,20.0,,'1111122,1111122,1111122' 
NDBC,ioos:station:NOAA.NDBC:VENF1:1,2010-10-04T08:00:00Z,27.0720,-82.4530,11.6,8.7,30.0,,'1111122,1111122,1111122' 
NDBC,ioos:station:NOAA.NDBC:VENF1:1,2010-10-04T09:00:00Z,27.0720,-82.4530,11.6,7.7,40.0,,'1111122,1111122,1111122' 
NDBC,ioos:station:NOAA.NDBC:VENF1:1,2010-10-04T10:00:00Z,27.0720,-82.4530,11.6,10.3,50.0,,'1111122,1111122,1111122' 
NDBC,ioos:station:NOAA.NDBC:VENF1:1,2010-10-04T11:00:00Z,27.0720,-82.4530,11.6,9.8,40.0,,'1111122,1111122,1111122' 
NDBC,ioos:station:NOAA.NDBC:VENF1:1,2010-10-04T12:00:00Z,27.0720,-82.4530,11.6,9.3,40.0,,'1111122,1111122,1111122' 
NDBC,ioos:station:NOAA.NDBC:VENF1:1,2010-10-04T13:00:00Z,27.0720,-82.4530,11.6,8.7,30.0,,'1111122,1111122,1111122' 
NDBC,ioos:station:NOAA.NDBC:VENF1:1,2010-10-04T14:00:00Z,27.0720,-82.4530,11.6,9.3,40.0,,'1111122,1111122,1111122' 
NDBC,ioos:station:NOAA.NDBC:VENF1:1,2010-10-04T15:00:00Z,27.0720,-82.4530,11.6,9.3,40.0,,'1111122,1111122,1111122' 
NDBC,ioos:station:NOAA.NDBC:VENF1:1,2010-10-04T16:00:00Z,27.0720,-82.4530,11.6,8.7,30.0,,'1111122,1111122,1111122' 
NDBC,ioos:station:NOAA.NDBC:VENF1:1,2010-10-04T17:00:00Z,27.0720,-82.4530,11.6,8.7,30.0,,'1111122,1111122,1111122' 
NDBC,ioos:station:NOAA.NDBC:VENF1:1,2010-10-04T18:00:00Z,27.0720,-82.4530,11.6,9.3,20.0,,'1111122,1111122,1111122' 
NDBC,ioos:station:NOAA.NDBC:VENF1:1,2010-10-04T19:00:00Z,27.0720,-82.4530,11.6,8.7,20.0,,'1111122,1111122,1111122' 
NDBC,ioos:station:NOAA.NDBC:VENF1:1,2010-10-04T20:00:00Z,27.0720,-82.4530,11.6,10.3,20.0,,'1111122,1111122,1111122' 
NDBC,ioos:station:NOAA.NDBC:VENF1:1,2010-10-04T21:00:00Z,27.0720,-82.4530,11.6,9.3,20.0,,'1111122,1111122,1111122' 
NDBC,ioos:station:NOAA.NDBC:VENF1:1,2010-10-04T22:00:00Z,27.0720,-82.4530,11.6,11.3,10.0,,'1111122,1111122,1111122' 
NDBC,ioos:station:NOAA.NDBC:VENF1:1,2010-10-04T23:00:00Z,27.0720,-82.4530,11.6,10.8,10.0,,'1111122,1111122,1111122' 
NDBC,ioos:station:NOAA.NDBC:VENF1:1,2010-10-05T00:00:00Z,27.0720,-82.4530,11.6,9.8,20.0,,'1111122,1111122,1111122' 
NDBC,ioos:station:NOAA.NDBC:VENF1:1,2010-10-05T01:00:00Z,27.0720,-82.4530,11.6,10.8,20.0,,'1111122,1111122,1111122' 
NDBC,ioos:station:NOAA.NDBC:VENF1:1,2010-10-05T02:00:00Z,27.0720,-82.4530,11.6,10.8,20.0,,'1111122,1111122,1111122' 
NDBC,ioos:station:NOAA.NDBC:VENF1:1,2010-10-05T03:00:00Z,27.0720,-82.4530,11.6,10.3,20.0,,'1111122,1111122,1111122' 
NDBC,ioos:station:NOAA.NDBC:VENF1:1,2010-10-05T04:00:00Z,27.0720,-82.4530,11.6,10.3,30.0,,'1111122,1111122,1111122' 
NDBC,ioos:station:NOAA.NDBC:VENF1:1,2010-10-05T05:00:00Z,27.0720,-82.4530,11.6,9.3,50.0,,'1111122,1111122,1111122' 
NDBC,ioos:station:NOAA.NDBC:VENF1:1,2010-10-05T06:00:00Z,27.0720,-82.4530,11.6,8.7,50.0,,'1111122,1111122,1111122' 
NDBC,ioos:station:NOAA.NDBC:VENF1:1,2010-10-05T07:00:00Z,27.0720,-82.4530,11.6,8.7,40.0,,'1111122,1111122,1111122' 
NDBC,ioos:station:NOAA.NDBC:VENF1:1,2010-10-05T08:00:00Z,27.0720,-82.4530,11.6,9.8,40.0,,'1111122,1111122,1111122' 
NDBC,ioos:station:NOAA.NDBC:VENF1:1,2010-10-05T09:00:00Z,27.0720,-82.4530,11.6,9.3,30.0,,'1111122,1111122,1111122' 
NDBC,ioos:station:NOAA.NDBC:VENF1:1,2010-10-05T10:00:00Z,27.0720,-82.4530,11.6,8.7,30.0,,'1111122,1111122,1111122' 
NDBC,ioos:station:NOAA.NDBC:VENF1:1,2010-10-05T11:00:00Z,27.0720,-82.4530,11.6,8.2,30.0,,'1111122,1111122,1111122' 
NDBC,ioos:station:NOAA.NDBC:VENF1:1,2010-10-05T12:00:00Z,27.0720,-82.4530,11.6,8.7,30.0,,'1111122,1111122,1111122' 
NDBC,ioos:station:NOAA.NDBC:VENF1:1,2010-10-05T13:00:00Z,27.0720,-82.4530,11.6,8.7,20.0,,'1111122,1111122,1111122' 
NDBC,ioos:station:NOAA.NDBC:VENF1:1,2010-10-05T14:00:00Z,27.0720,-82.4530,11.6,8.7,20.0,,'1111122,1111122,1111122' 
NDBC,ioos:station:NOAA.NDBC:VENF1:1,2010-10-05T15:00:00Z,27.0720,-82.4530,11.6,10.3,30.0,,'1111122,1111122,1111122' 
NDBC,ioos:station:NOAA.NDBC:VENF1:1,2010-10-05T16:00:00Z,27.0720,-82.4530,11.6,9.3,20.0,,'1111122,1111122,1111122' 
NDBC,ioos:station:NOAA.NDBC:VENF1:1,2010-10-05T17:00:00Z,27.0720,-82.4530,11.6,7.2,30.0,,'1111122,1111122,1111122' 
NDBC,ioos:station:NOAA.NDBC:VENF1:1,2010-10-05T18:00:00Z,27.0720,-82.4530,11.6,9.8,20.0,,'1111122,1111122,1111122' 
NDBC,ioos:station:NOAA.NDBC:VENF1:1,2010-10-05T19:00:00Z,27.0720,-82.4530,11.6,8.7,20.0,,'1111122,1111122,1111122' 
NDBC,ioos:station:NOAA.NDBC:VENF1:1,2010-10-05T20:00:00Z,27.0720,-82.4530,11.6,9.3,20.0,,'1111122,1111122,1111122' 
NDBC,ioos:station:NOAA.NDBC:VENF1:1,2010-10-05T21:00:00Z,27.0720,-82.4530,11.6,10.8,10.0,,'1111122,1111122,1111122' 
NDBC,ioos:station:NOAA.NDBC:VENF1:1,2010-10-05T22:00:00Z,27.0720,-82.4530,11.6,10.8,10.0,,'1111122,1111122,1111122' 
NDBC,ioos:station:NOAA.NDBC:VENF1:1,2010-10-05T23:00:00Z,27.0720,-82.4530,11.6,10.3,10.0,,'1111122,1111122,1111122' 
NDBC,ioos:station:NOAA.NDBC:VENF1:1,2010-10-06T00:00:00Z,27.0720,-82.4530,11.6,9.8,10.0,,'1111122,1111122,1111122' 
NDBC,ioos:station:NOAA.NDBC:VENF1:1,2010-10-06T01:00:00Z,27.0720,-82.4530,11.6,10.8,20.0,,'1111122,1111122,1111122' 
NDBC,ioos:station:NOAA.NDBC:VENF1:1,2010-10-06T02:00:00Z,27.0720,-82.4530,11.6,11.3,10.0,,'1111122,1111122,1111122' 
NDBC,ioos:station:NOAA.NDBC:VENF1:1,2010-10-06T03:00:00Z,27.0720,-82.4530,11.6,11.3,10.0,,'1111122,1111122,1111122' 
NDBC,ioos:station:NOAA.NDBC:VENF1:1,2010-10-06T04:00:00Z,27.0720,-82.4530,11.6,11.3,10.0,,'1111122,1111122,1111122' 
NDBC,ioos:station:NOAA.NDBC:VENF1:1,2010-10-06T05:00:00Z,27.0720,-82.4530,11.6,12.9,60.0,,'1111122,1111122,1111122' 
NDBC,ioos:station:NOAA.NDBC:VENF1:1,2010-10-06T06:00:00Z,27.0720,-82.4530,11.6,12.3,50.0,,'1111122,1111122,1111122' 
NDBC,ioos:station:NOAA.NDBC:VENF1:1,2010-10-06T07:00:00Z,27.0720,-82.4530,11.6,11.3,50.0,,'1111122,1111122,1111122' 
NDBC,ioos:station:NOAA.NDBC:VENF1:1,2010-10-06T08:00:00Z,27.0720,-82.4530,11.6,11.8,50.0,,'1111122,1111122,1111122' 
NDBC,ioos:station:NOAA.NDBC:VENF1:1,2010-10-06T09:00:00Z,27.0720,-82.4530,11.6,11.3,40.0,,'1111122,1111122,1111122' 
NDBC,ioos:station:NOAA.NDBC:VENF1:1,2010-10-06T10:00:00Z,27.0720,-82.4530,11.6,10.8,30.0,,'1111122,1111122,1111122' 
NDBC,ioos:station:NOAA.NDBC:VENF1:1,2010-10-06T11:00:00Z,27.0720,-82.4530,11.6,11.8,30.0,,'1111122,1111122,1111122' 
NDBC,ioos:station:NOAA.NDBC:VENF1:1,2010-10-06T12:00:00Z,27.0720,-82.4530,11.6,11.8,30.0,,'1111122,1111122,1111122' 
NDBC,ioos:station:NOAA.NDBC:VENF1:1,2010-10-06T13:00:00Z,27.0720,-82.4530,11.6,11.3,30.0,,'1111122,1111122,1111122' 
NDBC,ioos:station:NOAA.NDBC:VENF1:1,2010-10-06T14:00:00Z,27.0720,-82.4530,11.6,11.8,30.0,,'1111122,1111122,1111122' 
NDBC,ioos:station:NOAA.NDBC:VENF1:1,2010-10-06T15:00:00Z,27.0720,-82.4530,11.6,10.8,30.0,,'1111122,1111122,1111122' 
NDBC,ioos:station:NOAA.NDBC:VENF1:1,2010-10-06T16:00:00Z,27.0720,-82.4530,11.6,11.3,30.0,,'1111122,1111122,1111122' 
NDBC,ioos:station:NOAA.NDBC:VENF1:1,2010-10-06T17:00:00Z,27.0720,-82.4530,11.6,11.3,30.0,,'1111122,1111122,1111122' 
NDBC,ioos:station:NOAA.NDBC:VENF1:1,2010-10-06T19:00:00Z,27.0720,-82.4530,11.6,10.3,30.0,,'1111122,1111122,1111122' 
NDBC,ioos:station:NOAA.NDBC:VENF1:1,2010-10-06T21:00:00Z,27.0720,-82.4530,11.6,9.3,20.0,,'1111122,1111122,1111122' 
NDBC,ioos:station:NOAA.NDBC:VENF1:1,2010-10-06T22:00:00Z,27.0720,-82.4530,11.6,9.3,20.0,,'1111122,1111122,1111122' 
NDBC,ioos:station:NOAA.NDBC:VENF1:1,2010-10-06T23:00:00Z,27.0720,-82.4530,11.6,10.3,20.0,,'1111122,1111122,1111122' 
NDBC,ioos:station:NOAA.NDBC:VENF1:1,2010-10-07T00:00:00Z,27.0720,-82.4530,11.6,9.3,20.0,,'1111122,1111122,1111122' 
NDBC,ioos:station:NOAA.NDBC:VENF1:1,2010-10-07T01:00:00Z,27.0720,-82.4530,11.6,9.3,10.0,,'1111122,1111122,1111122' 
NDBC,ioos:station:NOAA.NDBC:VENF1:1,2010-10-07T02:00:00Z,27.0720,-82.4530,11.6,9.8,10.0,,'1111122,1111122,1111122' 
NDBC,ioos:station:NOAA.NDBC:VENF1:1,2010-10-07T03:00:00Z,27.0720,-82.4530,11.6,9.8,20.0,,'1111122,1111122,1111122' 
NDBC,ioos:station:NOAA.NDBC:VENF1:1,2010-10-07T04:00:00Z,27.0720,-82.4530,11.6,10.3,20.0,,'1111122,1111122,1111122' 
NDBC,ioos:station:NOAA.NDBC:VENF1:1,2010-10-07T05:00:00Z,27.0720,-82.4530,11.6,9.8,50.0,,'1111122,1111122,1111122' 
NDBC,ioos:station:NOAA.NDBC:VENF1:1,2010-10-07T06:00:00Z,27.0720,-82.4530,11.6,10.8,40.0,,'1111122,1111122,1111122' 
NDBC,ioos:station:NOAA.NDBC:VENF1:1,2010-10-07T07:00:00Z,27.0720,-82.4530,11.6,9.3,40.0,,'1111122,1111122,1111122' 
NDBC,ioos:station:NOAA.NDBC:VENF1:1,2010-10-07T08:00:00Z,27.0720,-82.4530,11.6,8.7,40.0,,'1111122,1111122,1111122' 
NDBC,ioos:station:NOAA.NDBC:VENF1:1,2010-10-07T09:00:00Z,27.0720,-82.4530,11.6,9.8,30.0,,'1111122,1111122,1111122' 
NDBC,ioos:station:NOAA.NDBC:VENF1:1,2010-10-07T11:00:00Z,27.0720,-82.4530,11.6,9.3,20.0,,'1111122,1111122,1111122' 
NDBC,ioos:station:NOAA.NDBC:VENF1:1,2010-10-07T13:00:00Z,27.0720,-82.4530,11.6,9.8,50.0,,'1111122,1111122,1111122' 
NDBC,ioos:station:NOAA.NDBC:VENF1:1,2010-10-07T14:00:00Z,27.0720,-82.4530,11.6,9.8,40.0,,'1111122,1111122,1111122' 
NDBC,ioos:station:NOAA.NDBC:VENF1:1,2010-10-07T15:00:00Z,27.0720,-82.4530,11.6,8.7,30.0,,'1111122,1111122,1111122' 
NDBC,ioos:station:NOAA.NDBC:VENF1:1,2010-10-07T16:00:00Z,27.0720,-82.4530,11.6,9.3,30.0,,'1111122,1111122,1111122' 
NDBC,ioos:station:NOAA.NDBC:VENF1:1,2010-10-07T17:00:00Z,27.0720,-82.4530,11.6,7.7,30.0,,'1111122,1111122,1111122' 
NDBC,ioos:station:NOAA.NDBC:VENF1:1,2010-10-07T18:00:00Z,27.0720,-82.4530,11.6,7.7,40.0,,'1111122,1111122,1111122' 
NDBC,ioos:station:NOAA.NDBC:VENF1:1,2010-10-07T19:00:00Z,27.0720,-82.4530,11.6,7.2,30.0,,'1111122,1111122,1111122' 
NDBC,ioos:station:NOAA.NDBC:VENF1:1,2010-10-07T20:00:00Z,27.0720,-82.4530,11.6,6.7,30.0,,'1111122,1111122,1111122' 
NDBC,ioos:station:NOAA.NDBC:VENF1:1,2010-10-07T21:00:00Z,27.0720,-82.4530,11.6,6.7,30.0,,'1111122,1111122,1111122' 
NDBC,ioos:station:NOAA.NDBC:VENF1:1,2010-10-07T22:00:00Z,27.0720,-82.4530,11.6,7.2,30.0,,'1111122,1111122,1111122' 
NDBC,ioos:station:NOAA.NDBC:VENF1:1,2010-10-08T00:00:00Z,27.0720,-82.4530,11.6,6.7,10.0,,'1111122,1111122,1111122' 
NDBC,ioos:station:NOAA.NDBC:VENF1:1,2010-10-08T03:00:00Z,27.0720,-82.4530,11.6,6.7,360.0,,'1111122,1111122,1111122' 
NDBC,ioos:station:NOAA.NDBC:VENF1:1,2010-10-08T13:00:00Z,27.0720,-82.4530,11.6,7.7,50.0,,'1111122,1111122,1111122' 
NDBC,ioos:station:NOAA.NDBC:VENF1:1,2010-10-08T14:00:00Z,27.0720,-82.4530,11.6,7.7,40.0,,'1111122,1111122,1111122' 
NDBC,ioos:station:NOAA.NDBC:VENF1:1,2010-10-08T15:00:00Z,27.0720,-82.4530,11.6,7.2,50.0,,'1111122,1111122,1111122' 
NDBC,ioos:station:NOAA.NDBC:VENF1:1,2010-10-08T16:00:00Z,27.0720,-82.4530,11.6,7.2,50.0,,'1111122,1111122,1111122' 
NDBC,ioos:station:NOAA.NDBC:VENF1:1,2010-10-08T17:00:00Z,27.0720,-82.4530,11.6,7.7,60.0,,'1111122,1111122,1111122' 
NDBC,ioos:station:NOAA.NDBC:VENF1:1,2010-10-08T18:00:00Z,27.0720,-82.4530,11.6,7.2,50.0,,'1111122,1111122,1111122' 
NDBC,ioos:station:NOAA.NDBC:VENF1:1,2010-10-08T19:00:00Z,27.0720,-82.4530,11.6,7.2,30.0,,'1111122,1111122,1111122' 
NDBC,ioos:station:NOAA.NDBC:VENF1:1,2010-10-08T20:00:00Z,27.0720,-82.4530,11.6,6.7,30.0,,'1111122,1111122,1111122' 
NDBC,ioos:station:NOAA.NDBC:VENF1:1,2010-10-08T21:00:00Z,27.0720,-82.4530,11.6,6.7,30.0,,'1111122,1111122,1111122' 
NDBC,ioos:station:NOAA.NDBC:VENF1:1,2010-10-08T22:00:00Z,27.0720,-82.4530,11.6,7.2,30.0,,'1111122,1111122,1111122' 
NDBC,ioos:station:NOAA.NDBC:VENF1:1,2010-10-08T23:00:00Z,27.0720,-82.4530,11.6,6.2,40.0,,'1111122,1111122,1111122' 
NDBC,ioos:station:NOAA.NDBC:VENF1:1,2010-10-09T00:00:00Z,27.0720,-82.4530,11.6,5.1,40.0,,'1111122,1111122,1111122' 
NDBC,ioos:station:NOAA.NDBC:VENF1:1,2010-10-09T01:00:00Z,27.0720,-82.4530,11.6,5.1,50.0,,'1111122,1111122,1111122' 
NDBC,ioos:station:NOAA.NDBC:VENF1:1,2010-10-09T02:00:00Z,27.0720,-82.4530,11.6,5.7,40.0,,'1111122,1111122,1111122' 
NDBC,ioos:station:NOAA.NDBC:VENF1:1,2010-10-09T03:00:00Z,27.0720,-82.4530,11.6,3.6,50.0,,'1111122,1111122,1111122' 
NDBC,ioos:station:NOAA.NDBC:VENF1:1,2010-10-09T04:00:00Z,27.0720,-82.4530,11.6,4.6,50.0,,'1111122,1111122,1111122' 
NDBC,ioos:station:NOAA.NDBC:VENF1:1,2010-10-09T05:00:00Z,27.0720,-82.4530,11.6,4.6,60.0,,'1111122,1111122,1111122' 
NDBC,ioos:station:NOAA.NDBC:VENF1:1,2010-10-09T06:00:00Z,27.0720,-82.4530,11.6,4.1,90.0,,'1111122,1111122,1111122' 
NDBC,ioos:station:NOAA.NDBC:VENF1:1,2010-10-09T07:00:00Z,27.0720,-82.4530,11.6,4.6,70.0,,'1111122,1111122,1111122' 
NDBC,ioos:station:NOAA.NDBC:VENF1:1,2010-10-09T08:00:00Z,27.0720,-82.4530,11.6,4.6,60.0,,'1111122,1111122,1111122' 
NDBC,ioos:station:NOAA.NDBC:VENF1:1,2010-10-09T09:00:00Z,27.0720,-82.4530,11.6,4.1,60.0,,'1111122,1111122,1111122' 
NDBC,ioos:station:NOAA.NDBC:VENF1:1,2010-10-09T10:00:00Z,27.0720,-82.4530,11.6,4.1,50.0,,'1111122,1111122,1111122' 
NDBC,ioos:station:NOAA.NDBC:VENF1:1,2010-10-09T11:00:00Z,27.0720,-82.4530,11.6,5.7,60.0,,'1111122,1111122,1111122' 
NDBC,ioos:station:NOAA.NDBC:VENF1:1,2010-10-09T12:00:00Z,27.0720,-82.4530,11.6,4.6,50.0,,'1111122,1111122,1111122' 
NDBC,ioos:station:NOAA.NDBC:VENF1:1,2010-10-09T13:00:00Z,27.0720,-82.4530,11.6,4.1,50.0,,'1111122,1111122,1111122' 
NDBC,ioos:station:NOAA.NDBC:VENF1:1,2010-10-09T14:00:00Z,27.0720,-82.4530,11.6,4.6,50.0,,'1111122,1111122,1111122' 
NDBC,ioos:station:NOAA.NDBC:VENF1:1,2010-10-09T15:00:00Z,27.0720,-82.4530,11.6,4.6,50.0,,'1111122,1111122,1111122' 
NDBC,ioos:station:NOAA.NDBC:VENF1:1,2010-10-09T16:00:00Z,27.0720,-82.4530,11.6,4.6,40.0,,'1111122,1111122,1111122' 
NDBC,ioos:station:NOAA.NDBC:VENF1:1,2010-10-09T17:00:00Z,27.0720,-82.4530,11.6,4.6,30.0,,'1111122,1111122,1111122' 
NDBC,ioos:station:NOAA.NDBC:VENF1:1,2010-10-09T18:00:00Z,27.0720,-82.4530,11.6,4.6,30.0,,'1111122,1111122,1111122' 
NDBC,ioos:station:NOAA.NDBC:VENF1:1,2010-10-09T19:00:00Z,27.0720,-82.4530,11.6,5.1,40.0,,'1111122,1111122,1111122' 
NDBC,ioos:station:NOAA.NDBC:VENF1:1,2010-10-09T20:00:00Z,27.0720,-82.4530,11.6,4.1,50.0,,'1111122,1111122,1111122' 
NDBC,ioos:station:NOAA.NDBC:VENF1:1,2010-10-09T21:00:00Z,27.0720,-82.4530,11.6,5.1,30.0,,'1111122,1111122,1111122' 
NDBC,ioos:station:NOAA.NDBC:VENF1:1,2010-10-09T22:00:00Z,27.0720,-82.4530,11.6,5.7,30.0,,'1111122,1111122,1111122' 
NDBC,ioos:station:NOAA.NDBC:VENF1:1,2010-10-09T23:00:00Z,27.0720,-82.4530,11.6,5.7,20.0,,'1111122,1111122,1111122' 
NDBC,ioos:station:NOAA.NDBC:VENF1:1,2010-10-10T00:00:00Z,27.0720,-82.4530,11.6,4.6,10.0,,'1111122,1111122,1111122' 
NDBC,ioos:station:NOAA.NDBC:VENF1:1,2010-10-10T01:00:00Z,27.0720,-82.4530,11.6,3.1,60.0,,'1111122,1111122,1111122' 
NDBC,ioos:station:NOAA.NDBC:VENF1:1,2010-10-10T02:00:00Z,27.0720,-82.4530,11.6,3.6,70.0,,'1111122,1111122,1111122' 
NDBC,ioos:station:NOAA.NDBC:VENF1:1,2010-10-10T03:00:00Z,27.0720,-82.4530,11.6,2.6,70.0,,'1111122,1111122,1111122' 
NDBC,ioos:station:NOAA.NDBC:VENF1:1,2010-10-10T04:00:00Z,27.0720,-82.4530,11.6,2.6,90.0,,'1111122,1111122,1111122' 
NDBC,ioos:station:NOAA.NDBC:VENF1:1,2010-10-10T05:00:00Z,27.0720,-82.4530,11.6,2.1,100.0,,'1111122,1111122,1111122' 
NDBC,ioos:station:NOAA.NDBC:VENF1:1,2010-10-10T06:00:00Z,27.0720,-82.4530,11.6,1.5,120.0,,'1111122,1111122,1111122' 
NDBC,ioos:station:NOAA.NDBC:VENF1:1,2010-10-10T07:00:00Z,27.0720,-82.4530,11.6,2.1,90.0,,'1111122,1111122,1111122' 
NDBC,ioos:station:NOAA.NDBC:VENF1:1,2010-10-10T11:00:00Z,27.0720,-82.4530,11.6,3.1,80.0,,'1111122,1111122,1111122' 
NDBC,ioos:station:NOAA.NDBC:VENF1:1,2010-10-10T12:00:00Z,27.0720,-82.4530,11.6,3.6,100.0,,'1111122,1111122,1111122' 